軌道要素
Epoch 2022 Jan. 21.0 TT = JDT 2459600.5
T 2023 May 8.49270 TT Rudenko
q 2.2282569 (2000.0) P Q
z -0.0005397 Peri. 162.40080 +0.69768983 +0.59419144
+/-0.0000009 Node 212.36104 +0.53377341 -0.05855830
e 1.0012027 Incl. 131.60872 +0.47782303 -0.80218917
From 1206 observations 2020 Apr. 18-2022 Feb. 1, mean residual 0".3.
|